Weather History for Pineville, WV

Change the Weather History Date:

Friday, February 10, 2012

  Actual Average (KBKW) Record (KBKW)
Temperature  
Mean Temperature 32 °F 33 °F  
Max Temperature 39 °F 42 °F 69 °F (1918)
Min Temperature 24 °F 25 °F -20 °F (1899)
Degree Days  
Heating Degree Days 34 32  
Month to date heating degree days 324  
Since 1 July heating degree days 3468  
Cooling Degree Days 0 0  
Month to date cooling degree days 0  
Year to date cooling degree days 0  
Moisture  
Dew Point 30 °F    
Average Humidity 94    
Maximum Humidity 100    
Minimum Humidity 75    
Precipitation  
Precipitation 0.00 in 0.10 in 1.00 in (1990)
Month to date precipitation 0.96  
Year to date precipitation 3.77  
Snow  
Snow 0.00 in - - ()
Month to date snowfall  
Since 1 September snowfall  
Snow Depth -    
Sea Level Pressure  
Sea Level Pressure 30.10 in    
Wind  
Wind Speed 0 mph (WNW)    
Max Wind Speed 5 mph    
Max Gust Speed -    
Visibility 8 miles    
Events Snow    
T = Trace of Precipitation, MM = Missing Value Source: NWS Daily Summary

Daily Weather History Graph

Daily Weather History Graph

Search for Another Location

Airport:

Trip Planner

Search our weather history database for the weather conditions in past years. The results will help you decide how hot, cold, wet, or windy it might be!

Date:

Astronomy

Feb. 10, 2012 Rise Set
Actual Time 7:21 AM EST 5:59 PM EST
Civil Twilight 6:54 AM EST 6:26 PM EST
Nautical Twilight 6:23 AM EST 6:57 PM EST
Astronomical Twilight 5:53 AM EST 7:28 PM EST
Moon 9:30 PM EST (2/10) 8:34 AM EST (2/10)
Length of Visible Light 11h 31m
Length of Day
10h 37m
Waning Gibbous, 90% of the Moon is Illuminated
Feb 10
Waning Gibbous
Feb 14
Last Quarter
Feb 21
New
Feb 29
First Quarter
Mar 8
Full

Hourly Weather History & Observations

Time (EST) Temp. Windchill Dew Point Humidity Pressure Visibility Wind Dir Wind Speed Gust Speed Precip Events Conditions
12:15 AM 28.4 °F - 28.4 °F 100% 30.23 in 10.0 mi Calm Calm - N/A   Mostly Cloudy
12:35 AM 28.4 °F - 26.6 °F 93% 30.23 in 10.0 mi Calm Calm - N/A   Clear
12:55 AM 26.6 °F - 26.6 °F 100% 30.23 in 10.0 mi Calm Calm - N/A   Clear
1:15 AM 26.6 °F - 26.6 °F 100% 30.23 in 7.0 mi Calm Calm - N/A   Clear
1:35 AM 26.6 °F - 26.6 °F 100% 30.22 in 10.0 mi Calm Calm - N/A   Clear
1:55 AM 26.6 °F - 26.6 °F 100% 30.21 in 10.0 mi Calm Calm - N/A   Clear
2:15 AM 26.6 °F - 26.6 °F 100% 30.20 in 10.0 mi Calm Calm - N/A   Clear
2:35 AM 26.6 °F - 26.6 °F 100% 30.20 in 10.0 mi Calm Calm - N/A   Clear
2:55 AM 26.6 °F - 26.6 °F 100% 30.20 in 10.0 mi Calm Calm - N/A   Clear
3:15 AM 26.6 °F - 26.6 °F 100% 30.20 in 10.0 mi Calm Calm - N/A   Clear
3:35 AM 26.6 °F - 26.6 °F 100% 30.19 in 10.0 mi Calm Calm - N/A   Clear
3:55 AM 24.8 °F - 24.8 °F 100% 30.19 in 10.0 mi Calm Calm - N/A   Clear
4:15 AM 26.6 °F - 26.6 °F 100% 30.18 in 10.0 mi Calm Calm - N/A   Clear
4:35 AM 26.6 °F - 26.6 °F 100% 30.18 in 10.0 mi Calm Calm - N/A   Clear
4:55 AM 24.8 °F - 24.8 °F 100% 30.17 in 10.0 mi Calm Calm - N/A   Clear
5:15 AM 26.6 °F - 26.6 °F 100% 30.16 in 10.0 mi Calm Calm - N/A   Clear
5:35 AM 26.6 °F - 26.6 °F 100% 30.16 in 10.0 mi Calm Calm - N/A   Clear
5:55 AM 24.8 °F - 24.8 °F 100% 30.16 in 10.0 mi Calm Calm - N/A   Clear
6:15 AM 26.6 °F - 26.6 °F 100% 30.16 in 10.0 mi Calm Calm - N/A   Clear
6:35 AM 24.8 °F - 24.8 °F 100% 30.15 in 10.0 mi Calm Calm - N/A   Clear
6:55 AM 24.8 °F - 24.8 °F 100% 30.16 in 10.0 mi Calm Calm - N/A   Scattered Clouds
7:15 AM 24.8 °F - 24.8 °F 100% 30.15 in 10.0 mi Calm Calm - N/A   Mostly Cloudy
7:35 AM 26.6 °F - 26.6 °F 100% 30.15 in 10.0 mi Calm Calm - N/A   Overcast
7:55 AM 26.6 °F - 26.6 °F 100% 30.15 in 10.0 mi Calm Calm - N/A   Overcast
8:15 AM 28.4 °F - 28.4 °F 100% 30.15 in 10.0 mi Calm Calm - N/A   Overcast
8:35 AM 28.4 °F - 28.4 °F 100% 30.15 in 10.0 mi Calm Calm - N/A   Overcast
8:55 AM 30.2 °F - 28.4 °F 93% 30.15 in 10.0 mi Calm Calm - N/A   Overcast
9:15 AM 30.2 °F - 30.2 °F 100% 30.14 in 10.0 mi Calm Calm - N/A   Overcast
9:35 AM 32.0 °F - 30.2 °F 93% 30.15 in 10.0 mi Calm Calm - N/A   Overcast
9:55 AM 32.0 °F - 30.2 °F 93% 30.14 in 10.0 mi Calm Calm - N/A   Overcast
10:15 AM 32.0 °F - 30.2 °F 93% 30.13 in 10.0 mi Calm Calm - N/A   Mostly Cloudy
10:35 AM 33.8 °F - 32.0 °F 93% 30.12 in 10.0 mi Calm Calm - N/A   Scattered Clouds
10:55 AM 33.8 °F - 32.0 °F 93% 30.12 in 10.0 mi Calm Calm - N/A   Mostly Cloudy
11:15 AM 35.6 °F - 32.0 °F 87% 30.11 in 10.0 mi Calm Calm - N/A   Overcast
11:35 AM 35.6 °F - 32.0 °F 87% 30.11 in 10.0 mi Calm Calm - N/A   Overcast
11:55 AM 35.6 °F - 32.0 °F 87% 30.10 in 10.0 mi Calm Calm - N/A   Overcast
12:15 PM 37.4 °F - 32.0 °F 81% 30.10 in 10.0 mi Calm Calm - N/A   Overcast
12:35 PM 35.6 °F - 30.2 °F 81% 30.09 in 10.0 mi Calm Calm - N/A   Overcast
12:55 PM 37.4 °F - 32.0 °F 81% 30.07 in 10.0 mi Calm Calm - N/A   Overcast
1:15 PM 37.4 °F - 32.0 °F 81% 30.05 in 10.0 mi Calm Calm - N/A   Overcast
1:35 PM 35.6 °F - 32.0 °F 87% 30.04 in 3.0 mi Calm Calm - N/A Snow Light Snow
1:55 PM 35.6 °F - 32.0 °F 87% 30.03 in 10.0 mi Calm Calm - N/A   Overcast
2:15 PM 37.4 °F - 32.0 °F 81% 30.02 in 10.0 mi Calm Calm - N/A   Mostly Cloudy
2:35 PM 37.4 °F - 32.0 °F 81% 30.01 in 10.0 mi Calm Calm - N/A   Overcast
2:55 PM 37.4 °F - 32.0 °F 81% 30.02 in 10.0 mi Calm Calm - N/A   Overcast
3:15 PM 37.4 °F - 32.0 °F 81% 30.02 in 10.0 mi Calm Calm - N/A   Overcast
3:35 PM 39.2 °F - 32.0 °F 75% 30.02 in 10.0 mi Calm Calm - N/A   Overcast
3:55 PM 37.4 °F - 32.0 °F 81% 30.03 in 10.0 mi Calm Calm - N/A   Overcast
4:15 PM 37.4 °F - 32.0 °F 81% 30.03 in 10.0 mi Calm Calm - N/A   Overcast
4:35 PM 37.4 °F - 32.0 °F 81% 30.03 in 10.0 mi Calm Calm - N/A   Overcast
4:55 PM 37.4 °F 33.8 °F 32.0 °F 81% 30.03 in 2.0 mi WNW 4.6 mph - N/A Snow Light Snow
5:15 PM 35.6 °F - 33.8 °F 93% 30.01 in 1.5 mi Calm Calm - N/A Snow Light Snow
5:35 PM 35.6 °F - 33.8 °F 93% 30.01 in 1.8 mi Calm Calm - N/A Snow Light Snow
5:55 PM 35.6 °F - 33.8 °F 93% 30.00 in 3.0 mi Calm Calm - N/A Snow Light Snow
6:15 PM 33.8 °F - 33.8 °F 100% 30.00 in 3.0 mi Calm Calm - N/A   Overcast
6:35 PM 35.6 °F - 33.8 °F 93% 29.99 in 3.0 mi Calm Calm - N/A Snow Light Snow
6:55 PM 33.8 °F - 33.8 °F 100% 30.00 in 3.0 mi Calm Calm - N/A Snow Light Snow
7:15 PM 33.8 °F - 33.8 °F 100% 30.00 in 1.8 mi Calm Calm - N/A Snow Light Snow
7:35 PM 33.8 °F - 33.8 °F 100% 29.99 in 1.5 mi Calm Calm - N/A Snow Light Snow
7:55 PM 33.8 °F - 33.8 °F 100% 29.98 in 1.5 mi Calm Calm - N/A Snow Light Snow
8:15 PM 33.8 °F - 33.8 °F 100% 29.98 in 1.0 mi Calm Calm - N/A Snow Light Snow
8:35 PM 33.8 °F - 33.8 °F 100% 29.98 in 1.2 mi Calm Calm - N/A Snow Light Snow
8:55 PM 35.6 °F - 35.6 °F 100% 29.98 in 1.2 mi Calm Calm - N/A Snow Light Snow
9:15 PM 33.8 °F - 33.8 °F 100% 29.98 in 1.2 mi Calm Calm - N/A Snow Light Snow
9:35 PM 33.8 °F - 33.8 °F 100% 29.97 in 1.0 mi Calm Calm - N/A Snow Light Snow
9:55 PM 35.6 °F - 35.6 °F 100% 29.96 in 1.8 mi Calm Calm - N/A Snow Light Snow
10:15 PM 33.8 °F - 33.8 °F 100% 29.96 in 1.8 mi Calm Calm - N/A Snow Light Snow
10:35 PM 33.8 °F - 33.8 °F 100% 29.96 in 2.0 mi Calm Calm - N/A Snow Light Snow
10:55 PM 33.8 °F - 33.8 °F 100% 29.95 in 2.0 mi Calm Calm - N/A Snow Light Snow
11:15 PM 33.8 °F - 33.8 °F 100% 29.95 in 2.5 mi Calm Calm - N/A Snow Light Snow
11:35 PM 33.8 °F - 33.8 °F 100% 29.94 in 2.5 mi Calm Calm - N/A Snow Light Snow
11:55 PM 33.8 °F - 33.8 °F 100% 29.94 in 3.0 mi Calm Calm - N/A Snow Light Snow